Location: Mascot Post Office (historical)
(40.2645°N, 99.5462°W)
Time: 02:42:47
(UTC+00:00)

Lacrosse 5 - Pass Details

Date: 14 July 2020
Orbit: 717 x 720 km, 57.0° (Epoch: 11 August)

Event Time Altitude Azimuth Distance (km) Brightness Sun altitude
Exits shadow 06:47:14 62° 322° (NW) 807 2.2 -28.1°
Drops below altitude 10° 06:52:11 10° 39° (NE) 2,204 5.0 -28.1°
Sets 06:54:36 0° 42° (NE) 3,127 5.9 -28.1°
